Abingdon, VA

2:58 PM EDT on October 14, 2019 (GMT -0400)
Virginia Highlands

Weather History for KVJI - September, 2019

Change the Weather History Date:

Monday, September 16, 2019

  Actual Average (KTRI) Record (KTRI)
Temperature  
Mean Temperature 72 °F -  
Max Temperature 87 °F 79 °F 92 °F (1955)
Min Temperature 56 °F 56 °F 42 °F (1985)
Cooling Degree Days 6    
Growing Degree Days 22 (Base 50)    
Moisture  
Dew Point 56 °F    
Average Humidity 63    
Maximum Humidity 88    
Minimum Humidity 29    
Precipitation  
Precipitation 0.00 in - - ()
Sea Level Pressure  
Sea Level Pressure 30.15 in    
Wind  
Wind Speed 2 mph (North)    
Max Wind Speed 10 mph    
Max Gust Speed 16 mph    
Visibility 10 miles    
Events      
Averages and records for this station are not official NWS values.
T = Trace of Precipitation, MM = Missing Value Source: NWS Daily Summary

Daily Weather History Graph

Daily Weather History Graph

Search for Another Location

Airport or City:

Astronomy

Sep. 16, 2019 Rise Set
Actual Time 7:11 AM EDT 7:34 PM EDT
Civil Twilight 6:45 AM EDT 8:00 PM EDT
Nautical Twilight 6:14 AM EDT 8:30 PM EDT
Astronomical Twilight 5:43 AM EDT 9:01 PM EDT
Moon 9:11 PM EDT (9/16) 9:14 AM EDT (9/16)
Length of Visible Light 13h 15m
Length of Day
12h 23m
Waning Gibbous, 94% of the Moon is Illuminated
Sep 16
Waning Gibbous
Sep 21
Last Quarter
Sep 28
New
Oct 5
First Quarter
Oct 13
Full

Hourly Weather History & Observations

Time (EDT) Temp. Heat Index Dew Point Humidity Pressure Visibility Wind Dir Wind Speed Gust Speed Precip Events Conditions
12:15 AM 64.0 °F - 53.6 °F 69% 30.18 in 10.0 mi Calm Calm - N/A   Clear
12:35 AM 61.3 °F - 53.8 °F 76% 30.18 in 10.0 mi Calm Calm - N/A   Clear
12:55 AM 61.2 °F - 54.0 °F 77% 30.18 in 10.0 mi Calm Calm - N/A   Clear
1:15 AM 59.7 °F - 53.8 °F 81% 30.19 in 10.0 mi Calm Calm - N/A   Clear
1:35 AM 59.9 °F - 54.0 °F 81% 30.18 in 10.0 mi Calm Calm - N/A   Clear
1:55 AM 59.9 °F - 54.5 °F 82% 30.18 in 10.0 mi Calm Calm - N/A   Clear
2:15 AM 60.1 °F - 54.1 °F 81% 30.18 in 10.0 mi Calm Calm - N/A   Clear
2:35 AM 59.0 °F - 53.8 °F 83% 30.18 in 10.0 mi Calm Calm - N/A   Clear
2:55 AM 59.4 °F - 54.0 °F 82% 30.17 in 10.0 mi Calm Calm - N/A   Clear
3:15 AM 57.6 °F - 53.8 °F 87% 30.17 in 10.0 mi ESE 4.6 mph - N/A   Clear
3:35 AM 60.1 °F - 53.4 °F 79% 30.18 in 10.0 mi ENE 4.6 mph - N/A   Clear
3:55 AM 58.8 °F - 53.1 °F 81% 30.17 in 10.0 mi Calm Calm - N/A   Clear
4:15 AM 58.3 °F - 53.1 °F 83% 30.18 in 10.0 mi Calm Calm - N/A   Clear
4:35 AM 58.1 °F - 53.1 °F 83% 30.18 in 10.0 mi Calm Calm - N/A   Clear
5:15 AM 56.3 °F - 52.9 °F 88% 30.18 in 10.0 mi East 4.6 mph - N/A   Clear
5:35 AM 56.5 °F - 52.9 °F 88% 30.18 in 10.0 mi ENE 4.6 mph - N/A   Clear
5:55 AM 57.6 °F - 53.1 °F 85% 30.18 in 10.0 mi Calm Calm - N/A   Clear
6:15 AM 57.2 °F - 52.7 °F 85% 30.18 in 10.0 mi Calm Calm - N/A   Clear
6:35 AM 56.5 °F - 52.7 °F 87% 30.18 in 10.0 mi Calm Calm - N/A   Clear
6:55 AM 56.3 °F - 52.9 °F 88% 30.18 in 10.0 mi Calm Calm - N/A   Clear
7:15 AM 56.8 °F - 52.7 °F 86% 30.19 in 10.0 mi Calm Calm - N/A   Clear
7:35 AM 56.8 °F - 52.7 °F 86% 30.20 in 10.0 mi Calm Calm - N/A   Clear
7:55 AM 58.1 °F - 53.8 °F 86% 30.20 in 10.0 mi Calm Calm - N/A   Clear
8:15 AM 60.8 °F - 56.1 °F 85% 30.21 in 10.0 mi Calm Calm - N/A   Clear
8:35 AM 63.1 °F - 56.1 °F 78% 30.21 in 10.0 mi ESE 4.6 mph - N/A   Clear
8:55 AM 64.9 °F - 55.4 °F 71% 30.22 in 10.0 mi ESE 5.8 mph - N/A   Clear
9:15 AM 66.7 °F - 56.1 °F 69% 30.22 in 10.0 mi East 3.5 mph - N/A   Mostly Cloudy
9:35 AM 66.4 °F - 56.3 °F 70% 30.22 in 10.0 mi Calm Calm - N/A   Scattered Clouds
9:55 AM 70.2 °F - 57.2 °F 63% 30.22 in 10.0 mi Calm Calm - N/A   Clear
10:35 AM 74.3 °F - 56.8 °F 54% 30.22 in 10.0 mi Calm Calm - N/A   Clear
10:55 AM 76.8 °F - 57.2 °F 51% 30.21 in 10.0 mi Calm Calm - N/A   Clear
11:15 AM 77.7 °F - 57.6 °F 50% 30.20 in 10.0 mi WSW 3.5 mph - N/A   Clear
11:35 AM 79.3 °F - 58.1 °F 48% 30.20 in 10.0 mi SW 4.6 mph - N/A   Clear
11:55 AM 80.8 °F 80.9 °F 56.8 °F 44% 30.20 in 10.0 mi WNW 5.8 mph - N/A   Clear
12:15 PM 81.5 °F 81.1 °F 55.4 °F 41% 30.18 in 10.0 mi WNW 3.5 mph - N/A   Clear
12:35 PM 82.4 °F 81.7 °F 54.9 °F 39% 30.18 in 10.0 mi North 5.8 mph - N/A   Clear
12:55 PM 84.0 °F 82.7 °F 54.3 °F 36% 30.17 in 10.0 mi WNW 8.1 mph - N/A   Clear
1:15 PM 84.4 °F 82.9 °F 53.6 °F 35% 30.16 in 10.0 mi NNW 5.8 mph - N/A   Clear
1:35 PM 84.9 °F - 52.5 °F 33% 30.16 in 10.0 mi WSW 3.5 mph - N/A   Clear
1:55 PM 85.1 °F 83.5 °F 53.4 °F 34% 30.15 in 10.0 mi NW 4.6 mph - N/A   Clear
2:15 PM 86.0 °F 84.0 °F 53.2 °F 32% 30.14 in 10.0 mi NNW 8.1 mph - N/A   Clear
2:35 PM 87.1 °F 84.9 °F 53.1 °F 31% 30.13 in 10.0 mi NW 6.9 mph - N/A   Clear
2:55 PM 86.5 °F - 51.8 °F 30% 30.12 in 10.0 mi North 10.4 mph - N/A   Clear
3:15 PM 86.9 °F - 51.8 °F 30% 30.11 in 10.0 mi North 3.5 mph - N/A   Clear
3:35 PM 87.1 °F - 52.0 °F 30% 30.11 in 10.0 mi North 6.9 mph - N/A   Clear
3:55 PM 87.4 °F - 51.8 °F 29% 30.10 in 10.0 mi North 8.1 mph 16.1 mph N/A   Clear
4:15 PM 87.1 °F - 52.0 °F 30% 30.09 in 10.0 mi NE 10.4 mph - N/A   Clear
4:35 PM 86.0 °F 84.2 °F 53.4 °F 33% 30.09 in 10.0 mi NNE 3.5 mph - N/A   Mostly Cloudy
5:15 PM 86.0 °F 84.3 °F 54.9 °F 34% 30.08 in 10.0 mi Calm Calm - N/A   Overcast
5:35 PM 86.0 °F 84.5 °F 55.0 °F 35% 30.08 in 10.0 mi North 5.8 mph - N/A   Mostly Cloudy
5:55 PM 85.1 °F 84.1 °F 56.7 °F 38% 30.08 in 10.0 mi Calm Calm - N/A   Overcast
6:15 PM 84.2 °F 83.5 °F 57.4 °F 40% 30.08 in 10.0 mi Calm Calm - N/A   Overcast
6:35 PM 83.5 °F 83.1 °F 58.3 °F 42% 30.08 in 10.0 mi Calm Calm - N/A   Overcast
6:55 PM 82.8 °F 82.7 °F 58.6 °F 44% 30.08 in 10.0 mi Calm Calm - N/A   Overcast
7:15 PM 80.8 °F 82.0 °F 63.0 °F 54% 30.08 in 10.0 mi Calm Calm - N/A   Mostly Cloudy
7:35 PM 77.5 °F - 63.7 °F 62% 30.08 in 10.0 mi Calm Calm - N/A   Scattered Clouds
7:55 PM 75.2 °F - 63.0 °F 66% 30.08 in 10.0 mi Calm Calm - N/A   Clear
8:15 PM 74.5 °F - 62.1 °F 65% 30.08 in 10.0 mi Calm Calm - N/A   Clear
8:35 PM 73.6 °F - 61.5 °F 66% 30.08 in 10.0 mi Calm Calm - N/A   Mostly Cloudy
8:55 PM 72.9 °F - 62.2 °F 69% 30.09 in 10.0 mi Calm Calm - N/A   Overcast
9:15 PM 73.0 °F - 62.1 °F 68% 30.09 in 10.0 mi Calm Calm - N/A   Mostly Cloudy
9:35 PM 73.0 °F - 62.4 °F 69% 30.09 in 10.0 mi Calm Calm - N/A   Mostly Cloudy
9:55 PM 71.6 °F - 62.4 °F 73% 30.09 in 10.0 mi Calm Calm - N/A   Overcast
10:15 PM 72.5 °F - 62.1 °F 70% 30.09 in 10.0 mi Calm Calm - N/A   Overcast
10:35 PM 72.0 °F - 62.6 °F 72% 30.09 in 10.0 mi Calm Calm - N/A   Overcast
10:55 PM 71.4 °F - 63.1 °F 75% 30.09 in 10.0 mi Calm Calm - N/A   Overcast
11:15 PM 71.2 °F - 63.3 °F 76% 30.10 in 10.0 mi Calm Calm - N/A   Overcast
11:35 PM 71.2 °F - 63.1 °F 75% 30.10 in 10.0 mi Calm Calm - N/A   Overcast
11:55 PM 71.1 °F - 63.5 °F 77% 30.09 in 10.0 mi Calm Calm - N/A   Mostly Cloudy